Tracking 29892 objects as of 21-Nov-2024
HD Live streaming from Space Station
objects crossing your sky now

CZ-6A DEB

Track CZ-6A DEB now!
10-day predictions


NORAD ID: 54976
Int'l Code: 2022-151TR
Perigee: 819.8 km
Apogee: 901.8 km
Inclination: 98.8 °
Period: 102.0 minutes
Semi major axis: 7231 km
RCS: Unknown
Launch date: November 11, 2022
Source: People's Republic of China (PRC)
Launch site: Taiyaun Space Center, China (TSC)

Note: This is SATELLITE DEBRIS
Your satellite tracking list
Your tracking list is empty




NASA's NSSDC Master Catalog

Two Line Element Set (TLE):
1 54976U 22151TR  24325.45343742  .00004003  00000-0  21905-2 0  9996
2 54976  98.8371 324.6063 0056705 163.1019 197.2058 14.11662926103427
Source of the keplerian elements: AFSPC